User: anonymous
Location: Caltech
(34.1382°N, 118.1253°W)
Time: 08:52:18
(UTC-07:00)
Language:

SL-16 R/B - Orbit

View from above orbital plane
View from above orbital plane
View from above satellite
View from above satellite

Ground track
Ground track

The orbit data is extracted from the following two-line orbital elements,

1 28353U 04021B   14272.46742964 -.00000250  00000-0 -10631-3 0  8493
2 28353 071.0030 358.1271 0007426 268.7937 166.7777 14.14086209531962
Epoch (UTC): 29 September 2014 11:13:05
Eccentricity: 0.0007426
inclination: 71.0030°
perigee height: 840 km
apogee height: 851 km
right ascension of ascending node: 358.1271°
argument of perigee: 268.7937°
revolutions per day: 14.14086209
mean anomaly at epoch: 166.7777°
orbit number at epoch: 53196

The dashed part of the orbit path shows where the satellite is in the earth's shadow,  

DLR